Regional Weather Roundup
Issued by NWS

Home | Current Version | Previous Version | Graphics & Text | Print | Product List | Glossary On
Versions: 1 2 3 4 5 6 7 8 9 10 11 12 13 14 15 16 17 18 19 20 21 22 23 24 25 26 27 28 29 30 31 32 33 34 35 36 37 38 39 40 41 42 43 44 45 46 47 48 49 50
000
ASUS43 KLOT 251200
RWRIL

ILLINOIS REGIONAL WEATHER ROUNDUP
NATIONAL WEATHER SERVICE CHICAGO/ROMEOVILLE IL
700 AM CDT FRI JUL 25 2014

NOTE: "FAIR" INDICATES FEW OR NO CLOUDS BELOW 12,000 FEET WITH NO
SIGNIFICANT WEATHER AND/OR OBSTRUCTIONS TO VISIBILITY.

* THESE STATIONS ARE NOT UNDER NWS QUALITY CONTROL. THEY ALSO MAY NOT
  REPORT WEATHER SUCH AS PRECIPITATION OR FOG.

ILZ001-002-007-009-015-016-024-251300-
NORTHWEST ILLINOIS

CITY           SKY/WX    TMP DP  RH WIND       PRES   REMARKS
MOLINE         LGT RAIN  62  58  86 CALM      30.09R
6HR MIN TEMP:  60; 6HR MAX TEMP:  63; 6HR PCP:  0.03;

STERLING*      CLOUDY    59  55  88 S3        30.08S
$$

ILZ003-004-008-010-011-017-018-251300-
NORTH CENTRAL ILLINOIS

CITY           SKY/WX    TMP DP  RH WIND       PRES   REMARKS
ROCKFORD       LGT RAIN  60  52  74 S5        30.11R
6HR MIN TEMP:  57; 6HR MAX TEMP:  60; 6HR PCP: TRACE;

FREEPORT*      LGT RAIN  58  55  88 SW8       30.09F
$$

ILZ005-006-012>014-019>023-251300-
NORTHEAST ILLINOIS

CITY           SKY/WX    TMP DP  RH WIND       PRES   REMARKS
CHICAGO-OHARE  CLOUDY    62  48  60 W9        30.09R
6HR MIN TEMP:  55; 6HR MAX TEMP:  62;

CHICAGO-MIDWAY CLOUDY    63  51  65 SW7       30.07R
6HR MIN TEMP:  60; 6HR MAX TEMP:  65;

AURORA         CLOUDY    55  52  89 CALM      30.10R
6HR MIN TEMP:  52; 6HR MAX TEMP:  57;

WAUKEGAN       PTSUNNY   62  46  55 VRB5      30.08R
6HR MIN TEMP:  54; 6HR MAX TEMP:  62;

DUPAGE AIRPORT CLOUDY    58  53  84 W3        30.09R
6HR MIN TEMP:  53; 6HR MAX TEMP:  58;

WHEELING       CLOUDY    63  50  62 W6        30.10R
6HR MIN TEMP:  57; 6HR MAX TEMP:  63;

$$

LMZ740>746-251300-
SOUTHERN LAKE MICHIGAN

STATION/POSITION SKY/WX   TEMP    WIND        PRES    VSBY  WAVE
                          AIR SEA DIR/SP/G                  HT/PER
                          (F)     (DEG/KT/KT) (MB)    (MI)  (FT/S)
SOUTHERN BUOY              62 61  200/  8/ 10 1017.1F         0
WAUKEGAN HARBOR            64     250/ 12/ 15   N/A
HARRISON CRIB              62     180/ 11/ 12   N/A
CALUMET HARBOR             60     200/  5/  7 1016.8R
MICHIGAN CITY              57     140/  9/ 12   N/A
MICHIGAN CITY 6N           61 68  170/ 10/ 14   N/A           2/ 2
ST. JOSEPH                 60 63  180/  6/ 10   N/A           1/ 2
$$

ILZ025>027-034>036-040-047-049-050-058-095>099-251300-
WEST-CENTRAL ILLINOIS

CITY           SKY/WX    TMP DP  RH WIND       PRES   REMARKS
QUINCY         CLOUDY    63  56  78 E5        30.06R
GALESBURG*     CLOUDY    61  57  88 CALM      30.09R
MACOMB*        CLOUDY    59  58  97 CALM      30.10R
$$

ILZ028>032-037-038-041>044-048-051>054-059>061-251300-
CENTRAL ILLINOIS

CITY           SKY/WX    TMP DP  RH WIND       PRES   REMARKS
DECATUR        CLOUDY    59  56  89 CALM      30.08R
PEORIA         CLOUDY    64  55  72 CALM      30.09R
6HR MIN TEMP:  63; 6HR MAX TEMP:  66;

SPRINGFIELD    CLOUDY    61  58  90 CALM      30.08R
6HR MIN TEMP:  57; 6HR MAX TEMP:  61;

TAYLORVILLE    NOT AVBL
$$

ILZ033-039-045-046-055>057-062-063-251300-
EAST-CENTRAL ILLINOIS

CITY           SKY/WX    TMP DP  RH WIND       PRES   REMARKS
CHAMPAIGN      CLOUDY    57  55  93 E3        30.07S
MATTOON        PTSUNNY   60  56  86 SE3       30.07R
$$

ILZ079-100>102-251300-
SOUTHWEST ILLINOIS

CITY           SKY/WX    TMP DP  RH WIND       PRES   REMARKS
ALTON          PTSUNNY   61  61 100 S6        30.06R
BELLEVILLE     PTSUNNY   59  59  99 CALM      30.05R
CAHOKIA*       PTSUNNY   63  59  87 CALM      30.05R
$$

ILZ064>066-069>071-074>076-080>082-084>086-088>090-092>094-251300-
SOUTH-CENTRAL ILLINOIS

CITY           SKY/WX    TMP DP  RH WIND       PRES   REMARKS
CARBONDALE     CLOUDY    59  57  93 CALM      30.06S
6HR MIN TEMP:  56; 6HR MAX TEMP:  60;

MARION         PTSUNNY   61  61 100 SE6       30.08R
MT. VERNON     PTSUNNY   57  54  88 CALM      30.07R
$$

ILZ067-068-072-073-078-083-087-091-251300-
SOUTHEAST ILLINOIS

CITY           SKY/WX    TMP DP  RH WIND       PRES   REMARKS
LAWRENCEVILLE  SUNNY     60  58  92 NE3       30.08S FOG
FLORA*         SUNNY     57  56  99 CALM      30.08R
HARRISBURG*    PTSUNNY   59  59 100 CALM      30.08S FOG
$$

ABBREVIATIONS USED IN REMARKS
   TC - TEMPERATURE IN CELSIUS
  WCI - WIND CHILL INDEX
   HX - HEAT INDEX
  VSB - VISIBILITY
$$




USA.gov is the U.S. government's official web portal to all federal, state and local government web resources and services.